Location: Newark
(41.0400°S, 62.7845°W)
Time: 08:43:21
(UTC+00:00)

Vanguard 2 Rocket - Pass Details

Date: 01 December 2021
Orbit: 553 x 3325 km, 32.9° (Epoch: 24 January)

Event Time Altitude Azimuth Distance (km) Brightness Sun altitude
Rises 06:38:00 0° 349° (N) 7,285 - -17.2°
Exits shadow 06:41:46 - 356° (N) 6,766 10.8 -16.8°
Reaches altitude 10° 06:45:55 10° 6° (N) 6,232 10.7 -16.3°
Maximum altitude 06:56:14 17° 38° (NE) 5,296 10.7 -15.0°
Drops below altitude 10° 07:05:08 10° 71° (ENE) 5,320 11.1 -13.9°
Sets 07:10:47 0° 89° (E) 5,843 11.7 -13.1°
